Location: Branche des Alpilles
(43.6087°N, 4.6976°E)
Time: 07:48:02
(UTC+00:00)

Cosmos 2181 Rocket - Pass Details

Date: 30 November 2020
Orbit: 951 x 1015 km, 82.9° (Epoch: 25 January)

Event Time Altitude Azimuth Distance (km) Brightness Sun altitude
Rises 17:10:43 0° 184° (S) 3,734 7.4 -11.5°
Reaches altitude 10° 17:13:15 10° 184° (S) 2,784 6.7 -11.9°
Maximum altitude 17:19:40 87° 97° (E) 1,012 4.1 -13.0°
Drops below altitude 10° 17:26:03 10° 9° (N) 2,768 6.1 -14.1°
Sets 17:28:34 0° 9° (N) 3,712 6.8 -14.6°
